[[{"header":{"parameterUnit":"m.s-1","parameterCategory":1,"la1":30.2991,"la2":30.254,"lo1":-89.0895,"lo2":-89.0444,"dy":0.0017,"dx":0.0017,"nx":28,"ny":28,"refTime":"2024-08-08T03:00:00:Z","depth":0,"parameterNumber":2,"parameterNumberName":"U-component_of_WINDS"},"data":[0,0,0,0,0,0,0,0,0,0,0,0,0,0,0,0,0,0,0,0,0,0,0,0,0,0,0,0,0,0,0,0,0,0,0,0,0,0,0,0,0,0,0,0,0,0,0,0,0,0,0,0,0,0,0,0,0,0,2.9123,2.9124,0,2.9163,2.9163,2.9164,2.9122,2.912,2.9119,2.9117,2.916,2.9162,2.9165,0,0,0,0,0,0,0,0,0,0,0,0,0,2.9015,2.9017,2.9123,2.9124,2.9124,2.9163,2.9163,2.9164,2.9122,2.912,2.9118,2.9116,2.9159,2.9162,2.9165,0,0,0,0,0,0,0,0,0,0,0,0,0,2.9059,2.9018,2.9123,2.9108,2.9107,2.9163,2.9163,2.9164,2.9123,2.912,2.9118,2.9116,2.9158,2.9162,2.9166,2.9239,0,0,2.9178,2.9179,0,0,0,0,0,0,0,0,2.9056,2.9063,2.911,2.9109,2.9108,2.9135,2.9141,2.9189,2.9123,2.9117,2.9117,2.9114,2.9154,2.9158,2.9171,2.9241,2.9242,2.9178,2.918,2.9182,2.9183,0,0,0,0,0,0,0,2.9053,2.9061,2.9139,2.9111,2.911,2.91,2.9104,2.915,2.9148,2.9117,2.9114,2.9119,2.9153,2.9167,2.9171,2.9243,2.9178,2.9181,2.9184,2.9185,2.9378,2.9381,0,0,0,0,0,0,2.9052,2.9059,2.9138,2.914,2.9076,2.9104,2.9108,2.9129,2.9148,2.9148,2.9121,2.9117,2.9161,2.9167,2.9173,2.9261,2.9182,2.9186,2.9188,2.9375,2.9379,2.9382,0,0,0,0,0,0,2.905,2.9059,2.9136,2.9099,2.9108,2.9109,2.9132,2.9131,2.9145,2.9151,2.9151,2.9136,2.916,2.9167,2.9223,2.9262,2.9188,2.9191,2.9372,2.9376,2.938,2.9439,0,0,0,0,0,0,2.9047,2.9059,2.9085,2.91,2.911,2.9185,2.9135,2.9133,2.9152,2.9147,2.9165,2.9165,2.9158,2.9217,2.9227,2.9266,2.9194,2.9369,2.9374,2.9379,2.9433,2.9444,2.9454,0,0,0,0,0,2.9043,2.91,2.9087,2.9097,2.9143,2.9187,2.9193,2.9184,2.9155,2.9183,2.9187,2.9165,2.9256,2.9223,2.9234,2.9275,2.9366,2.9372,2.9378,2.9429,2.9442,2.9453,0,0,0,0,0,0,2.9091,2.9102,2.9087,2.9151,2.9169,2.918,2.9215,2.9198,2.9225,2.9219,2.9206,2.9211,2.9271,2.9278,2.9241,2.9348,2.9307,2.9315,2.9341,2.9354,2.9364,2.9362,2.9198,0,0,0,0,0,2.9109,2.9143,2.9151,2.9206,2.9216,2.9214,2.9233,2.9224,2.9242,2.9249,2.9257,2.9277,2.931,2.9332,2.9363,2.9434,2.9439,2.9468,2.9478,2.9486,2.9494,2.9535,2.9549,2.9402,2.9402,2.9402,0,0,2.9146,2.9156,2.9179,2.9216,2.9229,2.9266,2.922,2.9261,2.9289,2.9256,2.931,2.9316,2.9337,2.9402,2.943,2.941,2.9536,2.9494,2.9501,2.9504,2.9543,2.9557,2.9569,2.9406,2.9405,2.9405,0,0,2.9234,2.9244,2.9292,2.9306,2.9326,2.9325,2.9337,2.9352,2.9355,2.9409,2.9386,2.9419,2.9475,2.9492,2.9508,2.9604,2.9585,2.9614,2.9668,2.9708,2.972,2.973,2.9767,2.978,2.9622,2.9622,2.9622,0,2.9278,2.9332,2.9319,2.9362,2.938,2.9352,2.9402,2.9416,2.9446,2.946,2.9436,2.9508,2.952,2.9589,2.9613,2.9626,2.9641,2.9613,2.9719,2.9729,2.9739,2.9773,2.9787,2.9626,2.9625,2.9625,2.9625,0,2.9387,2.9425,2.9462,2.9491,2.9513,2.9559,2.9555,2.9579,2.9569,2.957,2.9627,2.964,2.9674,2.969,2.968,2.9759,2.9746,2.9721,2.9679,2.9756,2.9789,2.9802,2.9631,2.963,2.9628,2.9628,0,0,2.9506,2.9529,2.9543,2.9557,2.9577,2.9607,2.9653,2.9686,2.9708,2.9729,2.9769,2.9818,2.9796,2.9814,2.9806,2.9841,2.9919,2.9812,2.9812,2.9833,3.001,3.003,3.0045,2.9906,2.9909,2.9911,3.0009,0,2.9596,2.9675,2.9666,2.9742,2.9778,2.9752,2.9792,2.981,2.9814,2.9846,2.9849,2.9886,2.9852,2.9864,2.9897,2.9902,2.9955,2.9895,2.9945,2.9947,2.9942,3.0062,3.0083,3.0175,3.0021,3.0023,3.0025,0,2.9711,2.9738,2.9817,2.9834,2.9849,2.9885,2.9916,2.9947,2.9967,2.9967,2.9988,2.9975,3.0022,2.9979,3.0046,3.0005,3.0025,3.0031,3.0035,3.004,2.9992,3.0073,3.0204,3.0219,3.0044,3.0043,3.0041,0,2.9794,2.9848,2.9904,2.9916,2.9937,2.9963,2.9973,2.9991,3.0013,3.004,3.0054,3.0086,3.0105,3.0131,3.0127,3.0095,3.0196,3.0151,3.0199,3.02,3.0223,3.0222,3.0361,3.0233,3.0232,3.0232,3.0232,0,2.9896,2.9947,2.9941,2.9976,3.0032,3.0021,3.0078,3.0085,3.0101,3.0138,3.0117,3.0152,3.0143,3.0179,3.0176,3.0233,3.0241,3.0244,3.0243,3.0247,3.0247,3.0261,3.0256,3.0236,3.0235,3.0234,3.0234,0,2.9998,2.9996,3.0055,3.007,3.0075,3.0116,3.013,3.0163,3.0165,3.0211,3.0222,3.0225,3.0265,3.0264,3.0309,3.0307,3.0379,3.0369,3.0372,3.0371,3.042,3.0416,3.0575,3.0596,3.0452,3.0453,3.0454,0,3.0065,3.0103,3.0122,3.0145,3.0157,3.0194,3.0216,3.0207,3.0231,3.0258,3.0289,3.0327,3.0358,3.0424,3.0431,3.0467,3.0459,3.0512,3.0464,3.0468,3.0463,3.0462,3.0467,3.0522,3.0524,3.0525,3.0526,0,3.0184,3.0182,3.0214,3.0246,3.0273,3.0298,3.0321,3.0341,3.0335,3.0363,3.0404,3.0428,3.0475,3.0514,3.0549,3.056,3.0544,3.0541,3.0554,3.056,3.0561,3.0564,3.04,3.0538,3.0537,3.0536,3.0535,3.0535,3.0272,3.0306,3.0326,3.0363,3.0379,3.0401,3.0434,3.044,3.0474,3.0511,3.0504,3.0551,3.0573,3.0617,3.0632,3.0669,3.0651,3.0669,3.0675,3.068,3.0687,3.0553,3.0675,3.0675,3.0674,3.0674,3.0674,0,3.0393,3.0404,3.0438,3.0472,3.0501,3.0481,3.0506,3.0533,3.0574,3.0595,3.0626,3.0674,3.0713,3.0723,3.0761,3.0789,3.0782,3.0799,3.0798,3.0802,3.07,3.0686,3.0804,3.0804,3.0804,3.0804,3.0804,3.0804,3.046,3.0517,3.0517,3.0582,3.0593,3.0639,3.0655,3.0676,3.0693,3.0748,3.078,3.0786,3.0804,3.0843,3.0878,3.088,3.0896,3.0917,3.0916,3.0821,3.0808,3.0796,3.0783,3.092,3.092,3.1015,3.1016,3.1017]},{"header":{"parameterUnit":"m.s-1","parameterCategory":1,"la1":30.2991,"la2":30.254,"lo1":-89.0895,"lo2":-89.0444,"dy":0.0017,"dx":0.0017,"nx":28,"ny":28,"refTime":"2024-08-08T03:00:00:Z","depth":0,"parameterNumber":3,"parameterNumberName":"V-component_of_WINDS"},"data":[0,0,0,0,0,0,0,0,0,0,0,0,0,0,0,0,0,0,0,0,0,0,0,0,0,0,0,0,0,0,0,0,0,0,0,0,0,0,0,0,0,0,0,0,0,0,0,0,0,0,0,0,0,0,0,0,0,0,-1.848,-1.848,0,-1.8518,-1.8519,-1.8519,-1.8524,-1.8524,-1.8523,-1.8523,-1.8561,-1.8562,-1.8564,0,0,0,0,0,0,0,0,0,0,0,0,0,-1.8411,-1.8412,-1.848,-1.848,-1.8481,-1.8518,-1.8519,-1.8519,-1.8524,-1.8524,-1.8523,-1.8523,-1.8561,-1.8562,-1.8564,0,0,0,0,0,0,0,0,0,0,0,0,0,-1.8444,-1.8412,-1.848,-1.8488,-1.8489,-1.8518,-1.8519,-1.8519,-1.8524,-1.8524,-1.8523,-1.8523,-1.856,-1.8562,-1.8564,-1.8587,0,0,-1.857,-1.8571,0,0,0,0,0,0,0,0,-1.8442,-1.8446,-1.8486,-1.8487,-1.8488,-1.8516,-1.8508,-1.8542,-1.8524,-1.8511,-1.8523,-1.8522,-1.8546,-1.8549,-1.8558,-1.8589,-1.8591,-1.857,-1.8572,-1.8572,-1.8573,0,0,0,0,0,0,0,-1.844,-1.8445,-1.8495,-1.8487,-1.8488,-1.8489,-1.8494,-1.8515,-1.8531,-1.8512,-1.8512,-1.8517,-1.8547,-1.8556,-1.8559,-1.8591,-1.857,-1.8572,-1.8573,-1.8574,-1.8645,-1.8646,0,0,0,0,0,0,-1.8436,-1.8443,-1.8494,-1.8496,-1.8463,-1.8491,-1.8496,-1.8508,-1.8531,-1.8534,-1.8517,-1.8517,-1.8553,-1.8556,-1.856,-1.859,-1.8572,-1.8574,-1.8575,-1.8645,-1.8646,-1.8646,0,0,0,0,0,0,-1.8434,-1.844,-1.8492,-1.847,-1.8476,-1.8493,-1.8506,-1.8509,-1.8518,-1.8535,-1.8538,-1.8524,-1.8552,-1.8557,-1.8581,-1.8591,-1.8575,-1.8577,-1.8644,-1.8645,-1.8646,-1.8649,0,0,0,0,0,0,-1.8432,-1.844,-1.8449,-1.847,-1.8477,-1.8512,-1.8507,-1.851,-1.8521,-1.8521,-1.8542,-1.8544,-1.8552,-1.8578,-1.8583,-1.8594,-1.8579,-1.8643,-1.8644,-1.8646,-1.8648,-1.865,-1.8652,0,0,0,0,0,-1.843,-1.8447,-1.8449,-1.8455,-1.8489,-1.8513,-1.8517,-1.8526,-1.8522,-1.8531,-1.8543,-1.8544,-1.8589,-1.858,-1.8586,-1.8598,-1.8642,-1.8644,-1.8646,-1.8647,-1.865,-1.8652,0,0,0,0,0,0,-1.8426,-1.845,-1.8452,-1.8477,-1.8493,-1.8514,-1.8525,-1.8528,-1.8545,-1.8545,-1.8555,-1.856,-1.8583,-1.8593,-1.8582,-1.8622,-1.8616,-1.8618,-1.8615,-1.8617,-1.8619,-1.8616,-1.858,0,0,0,0,0,-1.8428,-1.8446,-1.8466,-1.8486,-1.8494,-1.8508,-1.8519,-1.8525,-1.8542,-1.8548,-1.8561,-1.8577,-1.8595,-1.8607,-1.8624,-1.865,-1.8655,-1.8661,-1.8663,-1.8664,-1.8666,-1.8681,-1.8684,-1.8651,-1.8651,-1.8651,0,0,-1.8432,-1.8448,-1.8458,-1.8486,-1.8499,-1.8517,-1.8514,-1.8533,-1.8546,-1.8551,-1.8575,-1.8585,-1.8603,-1.8629,-1.864,-1.8637,-1.8677,-1.8666,-1.8667,-1.8668,-1.8683,-1.8686,-1.8689,-1.8652,-1.8652,-1.8652,0,0,-1.845,-1.8463,-1.8482,-1.8495,-1.8516,-1.8525,-1.853,-1.8551,-1.8558,-1.8582,-1.8586,-1.8603,-1.8633,-1.8647,-1.8658,-1.8683,-1.8684,-1.8688,-1.8697,-1.8712,-1.8715,-1.8717,-1.8726,-1.873,-1.869,-1.869,-1.869,0,-1.8452,-1.848,-1.8491,-1.851,-1.8522,-1.8529,-1.8548,-1.8561,-1.8585,-1.8594,-1.859,-1.863,-1.8643,-1.8672,-1.8678,-1.8686,-1.8692,-1.8685,-1.8714,-1.8716,-1.8718,-1.8727,-1.8731,-1.8691,-1.869,-1.869,-1.869,0,-1.8483,-1.8502,-1.8515,-1.854,-1.8553,-1.8572,-1.8586,-1.8599,-1.8605,-1.8615,-1.864,-1.8656,-1.8678,-1.8685,-1.869,-1.8715,-1.8713,-1.8711,-1.8705,-1.8722,-1.873,-1.8734,-1.8691,-1.8691,-1.8691,-1.8691,0,0,-1.8497,-1.8529,-1.8533,-1.8546,-1.8569,-1.8584,-1.8605,-1.8626,-1.8638,-1.8655,-1.8672,-1.8699,-1.8699,-1.8711,-1.8718,-1.8731,-1.875,-1.8728,-1.8729,-1.8732,-1.878,-1.8781,-1.8785,-1.8752,-1.8753,-1.8753,-1.8779,0,-1.8517,-1.8553,-1.8564,-1.8595,-1.8613,-1.8621,-1.8638,-1.8655,-1.8666,-1.8683,-1.8695,-1.8714,-1.8711,-1.8719,-1.8733,-1.8745,-1.876,-1.8743,-1.8768,-1.8769,-1.8763,-1.8789,-1.879,-1.8813,-1.8782,-1.8783,-1.8783,0,-1.8545,-1.8564,-1.8597,-1.862,-1.8628,-1.8643,-1.8665,-1.8682,-1.8701,-1.8708,-1.8723,-1.8729,-1.8751,-1.8744,-1.8774,-1.8763,-1.8774,-1.8782,-1.8783,-1.8785,-1.8777,-1.8793,-1.8821,-1.8824,-1.8789,-1.8788,-1.8788,0,-1.8553,-1.8587,-1.8611,-1.8621,-1.8648,-1.8659,-1.8671,-1.869,-1.8703,-1.8722,-1.8731,-1.8752,-1.8764,-1.878,-1.8792,-1.8786,-1.8822,-1.8815,-1.8828,-1.8828,-1.8835,-1.8834,-1.8865,-1.8842,-1.8842,-1.8842,-1.8842,0,-1.8574,-1.8594,-1.8615,-1.863,-1.8653,-1.8666,-1.8688,-1.87,-1.8717,-1.8735,-1.8742,-1.8759,-1.8773,-1.8792,-1.8801,-1.8826,-1.883,-1.8837,-1.8839,-1.8836,-1.8836,-1.8843,-1.8842,-1.8843,-1.8843,-1.8843,-1.8842,0,-1.8586,-1.8601,-1.8628,-1.8653,-1.8659,-1.8675,-1.8696,-1.8711,-1.8723,-1.8745,-1.8751,-1.8769,-1.8791,-1.8805,-1.8833,-1.884,-1.8867,-1.8868,-1.886,-1.8861,-1.8874,-1.8872,-1.8911,-1.8917,-1.8889,-1.8889,-1.889,0,-1.8599,-1.8614,-1.8641,-1.8654,-1.8666,-1.8686,-1.87,-1.8714,-1.8728,-1.8753,-1.8765,-1.8788,-1.8807,-1.8842,-1.8858,-1.888,-1.8882,-1.8894,-1.8885,-1.8883,-1.8883,-1.8882,-1.8884,-1.8896,-1.8896,-1.8896,-1.8896,0,-1.862,-1.8627,-1.8647,-1.867,-1.8687,-1.8705,-1.8724,-1.8734,-1.8751,-1.8766,-1.879,-1.8805,-1.8835,-1.8857,-1.8881,-1.8893,-1.8898,-1.8899,-1.8903,-1.89,-1.8895,-1.8899,-1.8864,-1.8898,-1.8898,-1.8898,-1.8897,-1.8897,-1.8633,-1.8648,-1.8669,-1.8692,-1.8707,-1.8725,-1.8741,-1.8755,-1.8775,-1.8801,-1.8808,-1.8833,-1.8853,-1.8886,-1.8899,-1.8918,-1.8916,-1.8922,-1.8924,-1.8925,-1.8926,-1.8892,-1.8922,-1.8922,-1.8922,-1.8922,-1.8922,0,-1.8655,-1.867,-1.869,-1.8717,-1.8734,-1.8738,-1.8759,-1.8774,-1.8796,-1.8815,-1.8834,-1.8862,-1.8885,-1.8903,-1.8927,-1.8939,-1.8942,-1.8945,-1.8944,-1.8947,-1.8926,-1.892,-1.8942,-1.8942,-1.8942,-1.8942,-1.8942,-1.8942,-1.8668,-1.8694,-1.8704,-1.8738,-1.8752,-1.8777,-1.8789,-1.8806,-1.8821,-1.8852,-1.8872,-1.8884,-1.8903,-1.8928,-1.8949,-1.8954,-1.8963,-1.8965,-1.8971,-1.895,-1.8948,-1.8946,-1.8941,-1.8967,-1.8967,-1.899,-1.8991,-1.8991]}]]